Flag for U.S.A. Weather past 2 weeks in San Francisco, California, U.S.A.

Now
62 °F

Passing clouds.


Feels Like: 62 °F
Forecast: 61 / 76 °F
Wind: 10 mph from Northwest

Location: San Francisco International Airport

Current Time: Aug 1, 2014 at 12:31:12 AM

Latest Report: Jul 31, 2014 at 11:56 PM


Visibility: 10 mi

Pressure: 29.91 "Hg

Humidity: 83%

Dew point: 57 °F

Location of San FranciscoLocation

Historic Weather in San Francisco — Graph

°F

San Francisco temperature yesterday

Maximum temperature yesterday: 71 °F (at 2:56 PM)
Minimum temperature yesterday: 58 °F (at 1:56 AM)
Average temperature yesterday: 64 °F

Past Weeks' High & Low Weather Summary

 TemperatureHumidityPressure
High87 °F (Jul 25, 1:56 PM)97% (Jul 30, 4:56 AM)30.14 "Hg (Jul 30, 4:56 AM)
Low58 °F (Jul 20, 5:56 AM)38% (Jul 25, 3:56 PM)29.83 "Hg (Jul 25, 5:56 PM)
Average67 °F74%29.98 "Hg
* Reported Jul 16 10:56 PM — Jul 31 10:56 PM, San Francisco, Weather by CustomWeather, © 2014

Note: Actual official high and low records may vary slightly from our data, if they occured in-between our weather recording intervals... More about our weather records

Advertising

San Francisco weather history for previous 24 hours

 ConditionsComfort  
Time TempWeatherWind HumidityBarometerVisibility
10:56 PM
Jul 31
62 °FPassing clouds.10 mph83%29.92 "Hg10 mi
9:56 PM62 °FPassing clouds.15 mph83%29.91 "Hg10 mi
8:56 PM62 °FScattered clouds.20 mph83%29.90 "Hg10 mi
7:56 PM63 °FScattered clouds.17 mph81%29.89 "Hg10 mi
6:56 PM64 °FScattered clouds.22 mph78%29.89 "Hg10 mi
5:56 PM67 °FPassing clouds.20 mph73%29.89 "Hg10 mi
4:56 PM68 °FPassing clouds.22 mph70%29.90 "Hg10 mi
3:56 PM71 °FPassing clouds.21 mph63%29.91 "Hg10 mi
2:56 PM71 °FPassing clouds.21 mph63%29.93 "Hg10 mi
1:56 PM70 °FScattered clouds.18 mph66%29.94 "Hg10 mi
12:56 PM70 °FPassing clouds.15 mph68%29.96 "Hg10 mi
11:56 AM69 °FScattered clouds.15 mph70%29.97 "Hg10 mi
10:56 AM67 °FPartly sunny.13 mph76%29.98 "Hg10 mi
9:56 AM65 °FBroken clouds.8 mph81%29.98 "Hg10 mi
8:56 AM62 °FScattered clouds.5 mph83%29.99 "Hg10 mi
7:56 AM60 °FLow clouds.5 mph90%29.98 "Hg10 mi
6:56 AM60 °FLow clouds.8 mph86%29.98 "Hg10 mi
5:56 AM59 °FMostly cloudy.6 mph93%29.96 "Hg10 mi
4:56 AM58 °FPartly cloudy.9 mph93%29.96 "Hg10 mi
3:56 AM58 °FPassing clouds.9 mph93%29.96 "Hg10 mi
2:56 AM58 °FClear.8 mph97%29.97 "Hg10 mi
1:56 AM58 °FPassing clouds.13 mph97%29.97 "Hg10 mi
12:56 AM61 °FPassing clouds.13 mph87%29.97 "Hg10 mi
Weather by CustomWeather, © 2014

See weather overviewHow to use our weather pages